Change the Weather History Date:

Saturday, August 3, 2013

  Actual Average Record
Temperature  
Mean Temperature 84 °F 82 °F  
Max Temperature 93 °F 90 °F 96 °F (1956)
Min Temperature 74 °F 73 °F 67 °F (1938)
Degree Days  
Heating Degree Days 0 0  
Month to date heating degree days 0 0  
Since 1 June heating degree days 0 0  
Since 1 July heating degree days 0 0  
Cooling Degree Days 19 17  
Month to date cooling degree days 52 51  
Year to date cooling degree days 1699 1614  
Since 1 June cooling degree days 1047 1013  
Growing Degree Days 32 (Base 50)    
Moisture  
Dew Point 73 °F    
Average Humidity 73    
Maximum Humidity 94    
Minimum Humidity 52    
Precipitation  
Precipitation 0.61 in 0.19 in 1.69 in (2002)
Month to date precipitation 0.64 0.57  
Year to date precipitation 29.65 27.30  
Sea Level Pressure  
Sea Level Pressure 30.05 in    
Wind  
Wind Speed 7 mph (WSW)    
Max Wind Speed 22 mph    
Max Gust Speed 29 mph    
Visibility 8 miles    
Events Fog , Rain , Thunderstorm    
T = Trace of Precipitation, MM = Missing Value Source: NWS Daily Summary

Daily Weather History Graph

Daily Weather History Graph

Search for Another Location

Airport or City:

Trip Planner

Search our weather history database for the weather conditions in past years. The results will help you decide how hot, cold, wet, or windy it might be!

Date:

Astronomy

Aug. 03, 2013 Rise Set
Actual Time 6:46 AM EDT 8:14 PM EDT
Civil Twilight 6:20 AM EDT 8:39 PM EDT
Nautical Twilight 5:49 AM EDT 9:10 PM EDT
Astronomical Twilight 5:18 AM EDT 9:42 PM EDT
Moon 3:57 AM EDT (8/3) 5:53 PM EDT (8/3)
Length of Visible Light 14h 19m
Length of Day
13h 28m
Waning Crescent, 9% of the Moon is Illuminated
Aug 3
Waning Crescent
Aug 6
New
Aug 14
First Quarter
Aug 20
Full
Aug 28
Last Quarter

Hourly Weather History & Observations

Time (EDT) Temp. Heat Index Dew Point Humidity Pressure Visibility Wind Dir Wind Speed Gust Speed Precip Events Conditions
12:53 AM 75.9 °F - 73.0 °F 91% 30.04 in 10.0 mi West 4.6 mph - N/A   Partly Cloudy
1:53 AM 75.0 °F - 73.0 °F 94% 30.04 in 10.0 mi Calm Calm - N/A   Partly Cloudy
2:53 AM 75.0 °F - 73.0 °F 94% 30.02 in 10.0 mi Calm Calm - N/A   Partly Cloudy
3:53 AM 75.0 °F - 72.0 °F 90% 30.01 in 10.0 mi West 3.5 mph - N/A   Partly Cloudy
4:53 AM 75.0 °F - 72.0 °F 90% 30.01 in 10.0 mi Calm Calm - N/A   Partly Cloudy
5:53 AM 75.0 °F - 72.0 °F 90% 30.02 in 10.0 mi Calm Calm - N/A   Scattered Clouds
6:53 AM 73.9 °F - 72.0 °F 93% 30.04 in 7.0 mi WSW 3.5 mph - N/A   Mostly Cloudy
7:53 AM 75.0 °F - 73.0 °F 94% 30.06 in 7.0 mi SW 4.6 mph - N/A   Mostly Cloudy
8:53 AM 81.0 °F 86.7 °F 75.0 °F 82% 30.06 in 10.0 mi WSW 6.9 mph - N/A   Scattered Clouds
9:53 AM 84.9 °F 93.3 °F 75.0 °F 72% 30.06 in 10.0 mi WSW 9.2 mph - N/A   Scattered Clouds
10:53 AM 88.0 °F 96.5 °F 73.9 °F 63% 30.07 in 10.0 mi West 11.5 mph 16.1 mph N/A   Mostly Cloudy
11:53 AM 88.0 °F 95.6 °F 73.0 °F 61% 30.07 in 10.0 mi West 10.4 mph - N/A   Mostly Cloudy
12:53 PM 89.1 °F 98.0 °F 73.9 °F 61% 30.07 in 10.0 mi West 8.1 mph - N/A   Mostly Cloudy
1:53 PM 91.0 °F 99.3 °F 73.0 °F 55% 30.04 in 10.0 mi SW 8.1 mph - N/A   Scattered Clouds
2:53 PM 91.9 °F 99.5 °F 72.0 °F 52% 30.03 in 10.0 mi SW 13.8 mph 19.6 mph N/A   Mostly Cloudy
3:53 PM 90.0 °F 99.0 °F 73.9 °F 59% 30.02 in 10.0 mi West 15.0 mph 23.0 mph N/A   Mostly Cloudy
4:53 PM 89.1 °F 95.0 °F 71.1 °F 55% 30.03 in 10.0 mi West 10.4 mph 18.4 mph N/A   Mostly Cloudy
5:53 PM 89.1 °F 97.0 °F 73.0 °F 59% 30.01 in 10.0 mi WSW 8.1 mph - N/A   Overcast
6:11 PM 87.8 °F 95.6 °F 73.4 °F 62% 30.03 in 8.0 mi SW 9.2 mph - N/A Thunderstorm Thunderstorm
6:23 PM 84.2 °F 89.6 °F 71.6 °F 66% 30.03 in 3.0 mi NW 17.3 mph 28.8 mph 0.00 in Rain , Thunderstorm Heavy Thunderstorms and Rain
6:32 PM 78.8 °F - 73.4 °F 83% 30.04 in 1.5 mi NNW 17.3 mph 25.3 mph 0.02 in Rain , Thunderstorm Heavy Thunderstorms and Rain
6:37 PM 75.2 °F - 73.4 °F 94% 30.05 in 0.5 mi NNW 21.9 mph 26.5 mph 0.13 in Fog , Rain , Thunderstorm Heavy Thunderstorms and Rain
6:39 PM 75.2 °F - 73.4 °F 94% 30.04 in 0.2 mi NNW 16.1 mph 26.5 mph 0.25 in Fog , Rain , Thunderstorm Heavy Thunderstorms and Rain
6:53 PM 75.9 °F - 73.0 °F 91% 30.05 in 4.0 mi Variable 4.6 mph - 0.56 in Rain , Thunderstorm Thunderstorms and Rain
7:41 PM 75.2 °F - 73.4 °F 94% 30.07 in 7.0 mi SSE 6.9 mph - 0.05 in Rain , Thunderstorm Light Thunderstorms and Rain
7:53 PM 75.9 °F - 73.0 °F 91% 30.07 in 8.0 mi South 8.1 mph - 0.05 in Thunderstorm Thunderstorm
8:20 PM 75.2 °F - 73.4 °F 94% 30.07 in 10.0 mi South 11.5 mph - N/A   Overcast
8:53 PM 75.9 °F - 73.0 °F 91% 30.08 in 10.0 mi South 9.2 mph - N/A   Overcast
9:53 PM 75.9 °F - 73.0 °F 91% 30.08 in 10.0 mi SSW 8.1 mph - N/A   Overcast
10:53 PM 75.9 °F - 73.0 °F 91% 30.09 in 10.0 mi SW 5.8 mph - N/A   Scattered Clouds
11:53 PM 75.9 °F - 73.0 °F 91% 30.08 in 10.0 mi SSW 8.1 mph - N/A   Mostly Cloudy